Location: Newark
(0.5333°S, 166.9167°E)
Time: 13:31:09
(UTC+00:00)

XW-2C - Visible Passes

Search period start: 12 November 2019 00:00
Search period end: 22 November 2019 00:00
Orbit: 507 x 530 km, 97.5° (Epoch: 12 November)

Date Brightness Start Highest point End Pass type
(mag) Time Alt. Az. Time Alt. Az. Time Alt. Az.
13 Nov ? 18:10:09 10° NNE 18:13:46 44° ESE 18:17:26 10° S visible
14 Nov ? 17:56:38 10° NE 17:59:50 26° ESE 18:03:05 10° SSE visible
15 Nov ? 07:25:19 10° WSW 07:26:33 11° WSW 07:27:46 10° W visible
15 Nov ? 17:43:29 10° ENE 17:45:54 16° ESE 17:48:21 10° SE visible
16 Nov ? 07:09:57 10° SSW 07:12:37 19° WSW 07:15:16 10° NW visible
20 Nov ? 18:06:29 10° NNE 18:10:02 38° ESE 18:13:37 10° S visible
21 Nov ? 17:53:01 10° NE 17:56:06 23° ESE 17:59:11 10° SSE visible
